Pittsburgh Allegheny Co., PA

3:48 AM EDT on October 19, 2019 (GMT -0400)
Allegheny County

Weather History for KAGC - July, 2019

Change the Weather History Date:

Friday, July 19, 2019

  Actual Average Record
Temperature  
Mean Temperature 80 °F -  
Max Temperature 88 °F 88 °F 96 °F (1988)
Min Temperature 72 °F 62 °F 55 °F (2003)
Cooling Degree Days 14    
Growing Degree Days 30 (Base 50)    
Moisture  
Dew Point 73 °F    
Average Humidity 81    
Maximum Humidity 97    
Minimum Humidity 63    
Precipitation  
Precipitation 0.00 in - - ()
Sea Level Pressure  
Sea Level Pressure 29.97 in    
Wind  
Wind Speed 8 mph (SSW)    
Max Wind Speed 14 mph    
Max Gust Speed 23 mph    
Visibility 9 miles    
Events      
Averages and records for this station are not official NWS values.
T = Trace of Precipitation, MM = Missing Value Source: NWS Daily Summary

Daily Weather History Graph

Daily Weather History Graph

Search for Another Location

Airport or City:

Astronomy

Jul. 19, 2019 Rise Set
Actual Time 6:05 AM EDT 8:46 PM EDT
Civil Twilight 5:33 AM EDT 9:17 PM EDT
Nautical Twilight 4:53 AM EDT 9:57 PM EDT
Astronomical Twilight 4:08 AM EDT 10:42 PM EDT
Moon 10:43 PM EDT 8:30 AM EDT
Length of Visible Light 15h 44m
Length of Day
14h 40m
Waning Gibbous, 93% of the Moon is Illuminated
Jul 19
Waning Gibbous
Jul 24
Last Quarter
Jul 31
New
Aug 7
First Quarter
Aug 15
Full

Hourly Weather History & Observations

Time (EDT) Temp. Heat Index Dew Point Humidity Pressure Visibility Wind Dir Wind Speed Gust Speed Precip Events Conditions
12:53 AM 77.0 °F - 70.0 °F 79% 29.94 in 10.0 mi SSW 6.9 mph - N/A   Clear
1:53 AM 73.9 °F - 70.0 °F 87% 29.95 in 10.0 mi South 5.8 mph - N/A   Clear
2:53 AM 73.0 °F - 70.0 °F 90% 29.95 in 10.0 mi South 6.9 mph - N/A   Clear
3:53 AM 73.0 °F - 71.1 °F 93% 29.94 in 10.0 mi South 8.1 mph - N/A   Clear
4:53 AM 72.0 °F - 71.1 °F 97% 29.95 in 10.0 mi South 5.8 mph - N/A   Clear
5:53 AM 72.0 °F - 70.0 °F 93% 29.94 in 7.0 mi South 8.1 mph - N/A   Clear
6:53 AM 72.0 °F - 71.1 °F 97% 29.95 in 5.0 mi South 9.2 mph - N/A   Clear
7:53 AM 75.0 °F - 72.0 °F 90% 29.96 in 9.0 mi SSW 8.1 mph - N/A   Clear
8:48 AM 77.0 °F - 73.4 °F 89% 29.99 in 10.0 mi SW 9.2 mph - N/A   Mostly Cloudy
8:53 AM 77.0 °F - 73.0 °F 88% 29.97 in 10.0 mi SW 9.2 mph - N/A   Mostly Cloudy
9:22 AM 78.1 °F - 73.0 °F 84% 29.99 in 10.0 mi SW 8.1 mph - N/A   Overcast
9:48 AM 78.8 °F - 73.4 °F 83% 30.00 in 5.0 mi SW 9.2 mph - N/A   Haze
9:53 AM 78.1 °F - 73.0 °F 84% 29.99 in 5.0 mi SW 10.4 mph - N/A   Haze
10:53 AM 79.0 °F - 73.0 °F 82% 29.99 in 5.0 mi West 9.2 mph 18.4 mph N/A   Overcast
11:38 AM 81.0 °F 86.2 °F 73.9 °F 79% 30.00 in 7.0 mi SSW 10.4 mph 23.0 mph N/A   Overcast
11:53 AM 81.0 °F 86.2 °F 73.9 °F 79% 29.98 in 7.0 mi SSW 9.2 mph - N/A   Overcast
12:53 PM 81.0 °F 86.2 °F 73.9 °F 79% 29.97 in 9.0 mi SSW 9.2 mph - N/A   Overcast
1:48 PM 82.4 °F 88.2 °F 73.4 °F 74% 30.00 in 10.0 mi SW 12.7 mph - N/A   Overcast
1:53 PM 82.9 °F 88.8 °F 73.0 °F 72% 29.98 in 10.0 mi WSW 12.7 mph - N/A   Overcast
2:53 PM 84.9 °F 93.3 °F 75.0 °F 72% 29.98 in 10.0 mi WSW 9.2 mph - N/A   Scattered Clouds
3:53 PM 86.0 °F 95.1 °F 75.0 °F 70% 29.97 in 10.0 mi WSW 10.4 mph - N/A   Scattered Clouds
4:53 PM 87.1 °F 95.4 °F 73.9 °F 65% 29.96 in 10.0 mi SW 12.7 mph - N/A   Mostly Cloudy
5:53 PM 87.1 °F 94.5 °F 73.0 °F 63% 29.95 in 10.0 mi WSW 10.4 mph 20.7 mph N/A   Clear
6:53 PM 87.1 °F 94.5 °F 73.0 °F 63% 29.94 in 10.0 mi SW 13.8 mph - N/A   Clear
7:53 PM 86.0 °F 93.0 °F 73.0 °F 65% 29.95 in 10.0 mi SW 10.4 mph - N/A   Clear
8:53 PM 82.9 °F 89.4 °F 73.9 °F 74% 29.95 in 10.0 mi South 5.8 mph - N/A   Clear
9:53 PM 81.0 °F 86.2 °F 73.9 °F 79% 29.98 in 10.0 mi South 5.8 mph - N/A   Clear
10:53 PM 79.0 °F - 73.9 °F 84% 29.97 in 10.0 mi South 6.9 mph - N/A   Clear
11:53 PM 79.0 °F - 73.9 °F 84% 29.97 in 9.0 mi South 6.9 mph - N/A   Clear